Year,Month,Day,Hour,Minute,Value (Times are PST for temperature in C)
2015,08,24,00,00,18.20
2015,08,24,00,01,18.20
2015,08,24,00,02,18.20
2015,08,24,00,03,18.10
2015,08,24,00,04,18.10
2015,08,24,00,05,18.10
2015,08,24,00,06,18.00
2015,08,24,00,07,18.00
2015,08,24,00,08,18.00
2015,08,24,00,09,17.90
2015,08,24,00,10,17.90
2015,08,24,00,11,17.90
2015,08,24,00,12,17.90
2015,08,24,00,13,17.80
2015,08,24,00,14,17.80
2015,08,24,00,15,17.80
2015,08,24,00,16,17.80
2015,08,24,00,17,17.70
2015,08,24,00,18,17.70
2015,08,24,00,19,17.70
2015,08,24,00,20,17.70
2015,08,24,00,21,17.70
2015,08,24,00,22,17.60
2015,08,24,00,23,17.60
2015,08,24,00,24,17.60
2015,08,24,00,25,17.50
2015,08,24,00,26,17.50
2015,08,24,00,27,17.40
2015,08,24,00,28,17.40
2015,08,24,00,29,17.40
2015,08,24,00,30,17.40
2015,08,24,00,31,17.30
2015,08,24,00,32,17.30
2015,08,24,00,33,17.30
2015,08,24,00,34,17.30
2015,08,24,00,35,17.30
2015,08,24,00,36,17.20
2015,08,24,00,37,17.20
2015,08,24,00,38,17.20
2015,08,24,00,39,17.20
2015,08,24,00,40,17.20
2015,08,24,00,41,17.10
2015,08,24,00,42,17.10
2015,08,24,00,43,17.10
2015,08,24,00,44,17.00
2015,08,24,00,45,17.00
2015,08,24,00,46,17.00
2015,08,24,00,47,16.90
2015,08,24,00,48,16.90
2015,08,24,00,49,16.90
2015,08,24,00,50,16.90
2015,08,24,00,51,16.80
2015,08,24,00,52,16.80
2015,08,24,00,53,16.80
2015,08,24,00,54,16.80
2015,08,24,00,55,16.70
2015,08,24,00,56,16.70
2015,08,24,00,57,16.70
2015,08,24,00,58,16.60
2015,08,24,00,59,16.60
2015,08,24,01,00,16.60
2015,08,24,01,01,16.50
2015,08,24,01,02,16.50
2015,08,24,01,03,16.40
2015,08,24,01,04,16.30
2015,08,24,01,05,16.30
2015,08,24,01,06,16.30
2015,08,24,01,07,16.20
2015,08,24,01,08,16.20
2015,08,24,01,09,16.20
2015,08,24,01,10,16.20
2015,08,24,01,11,16.20
2015,08,24,01,12,16.10
2015,08,24,01,13,16.10
2015,08,24,01,14,16.20
2015,08,24,01,15,16.20
2015,08,24,01,16,16.20
2015,08,24,01,17,16.30
2015,08,24,01,18,16.30
2015,08,24,01,19,16.30
2015,08,24,01,20,16.40
2015,08,24,01,21,16.40
2015,08,24,01,22,16.40
2015,08,24,01,23,16.40
2015,08,24,01,24,16.40
2015,08,24,01,25,16.40
2015,08,24,01,26,16.30
2015,08,24,01,27,16.30
2015,08,24,01,28,16.30
2015,08,24,01,29,16.30
2015,08,24,01,30,16.30
2015,08,24,01,31,16.30
2015,08,24,01,32,16.30
2015,08,24,01,33,16.30
2015,08,24,01,34,16.30
2015,08,24,01,35,16.30
2015,08,24,01,36,16.30
2015,08,24,01,37,16.30
2015,08,24,01,38,16.30
2015,08,24,01,39,16.30
2015,08,24,01,40,16.30
2015,08,24,01,41,16.30
2015,08,24,01,42,16.30
2015,08,24,01,43,16.30
2015,08,24,01,44,16.30
2015,08,24,01,45,16.20
2015,08,24,01,46,16.20
2015,08,24,01,47,16.20
2015,08,24,01,48,16.20
2015,08,24,01,49,16.20
2015,08,24,01,50,16.20
2015,08,24,01,51,16.20
2015,08,24,01,52,16.20
2015,08,24,01,53,16.20
2015,08,24,01,54,16.20
2015,08,24,01,55,16.20
2015,08,24,01,56,16.10
2015,08,24,01,57,16.10
2015,08,24,01,58,16.10
2015,08,24,01,59,16.10
2015,08,24,02,00,16.10
2015,08,24,02,01,16.10
2015,08,24,02,02,16.10
2015,08,24,02,03,16.10
2015,08,24,02,04,16.10
2015,08,24,02,05,16.10
2015,08,24,02,06,16.10
2015,08,24,02,07,16.10
2015,08,24,02,08,16.10
2015,08,24,02,09,16.10
2015,08,24,02,10,16.10
2015,08,24,02,11,16.10
2015,08,24,02,12,16.10
2015,08,24,02,13,16.10
2015,08,24,02,14,16.00
2015,08,24,02,15,16.00
2015,08,24,02,16,16.00
2015,08,24,02,17,15.90
2015,08,24,02,18,15.90
2015,08,24,02,19,15.90
2015,08,24,02,20,15.80
2015,08,24,02,21,15.80
2015,08,24,02,22,15.80
2015,08,24,02,23,15.80
2015,08,24,02,24,15.70
2015,08,24,02,25,15.70
2015,08,24,02,26,15.70
2015,08,24,02,27,15.70
2015,08,24,02,28,15.60
2015,08,24,02,29,15.60
2015,08,24,02,30,15.60
2015,08,24,02,31,15.60
2015,08,24,02,32,15.60
2015,08,24,02,33,15.60
2015,08,24,02,34,15.60
2015,08,24,02,35,15.50
2015,08,24,02,36,15.50
2015,08,24,02,37,15.50
2015,08,24,02,38,15.50
2015,08,24,02,39,15.40
2015,08,24,02,40,15.40
2015,08,24,02,41,15.40
2015,08,24,02,42,15.40
2015,08,24,02,43,15.40
2015,08,24,02,44,15.40
2015,08,24,02,45,15.40
2015,08,24,02,46,15.40
2015,08,24,02,47,15.40
2015,08,24,02,48,15.40
2015,08,24,02,49,15.40
2015,08,24,02,50,15.40
2015,08,24,02,51,15.50
2015,08,24,02,52,15.50
2015,08,24,02,53,15.50
2015,08,24,02,54,15.50
2015,08,24,02,55,15.60
2015,08,24,02,56,15.60
2015,08,24,02,57,15.60
2015,08,24,02,58,15.60
2015,08,24,02,59,15.60
2015,08,24,03,00,15.70
2015,08,24,03,01,15.70
2015,08,24,03,02,15.70
2015,08,24,03,03,15.70
2015,08,24,03,04,15.70
2015,08,24,03,05,15.70
2015,08,24,03,06,15.70
2015,08,24,03,07,15.70
2015,08,24,03,08,15.70
2015,08,24,03,09,15.70
2015,08,24,03,10,15.70
2015,08,24,03,11,15.70
2015,08,24,03,12,15.70
2015,08,24,03,13,15.70
2015,08,24,03,14,15.70
2015,08,24,03,15,15.70
2015,08,24,03,16,15.70
2015,08,24,03,17,15.80
2015,08,24,03,18,15.80
2015,08,24,03,19,15.70
2015,08,24,03,20,15.70
2015,08,24,03,21,15.70
2015,08,24,03,22,15.70
2015,08,24,03,23,15.70
2015,08,24,03,24,15.70
2015,08,24,03,25,15.60
2015,08,24,03,26,15.60
2015,08,24,03,27,15.60
2015,08,24,03,28,15.60
2015,08,24,03,29,15.60
2015,08,24,03,30,15.60
2015,08,24,03,31,15.60
2015,08,24,03,32,15.60
2015,08,24,03,33,15.60
2015,08,24,03,34,15.60
2015,08,24,03,35,15.60
2015,08,24,03,36,15.60
2015,08,24,03,37,15.60
2015,08,24,03,38,15.60
2015,08,24,03,39,15.60
2015,08,24,03,40,15.50
2015,08,24,03,41,15.50
2015,08,24,03,42,15.50
2015,08,24,03,43,15.40
2015,08,24,03,44,15.40
2015,08,24,03,45,15.40
2015,08,24,03,46,15.40
2015,08,24,03,47,15.40
2015,08,24,03,48,15.40
2015,08,24,03,49,15.40
2015,08,24,03,50,15.40
2015,08,24,03,51,15.40
2015,08,24,03,52,15.40
2015,08,24,03,53,15.40
2015,08,24,03,54,15.40
2015,08,24,03,55,15.40
2015,08,24,03,56,15.30
2015,08,24,03,57,15.30
2015,08,24,03,58,15.30
2015,08,24,03,59,15.30
2015,08,24,04,00,15.30
2015,08,24,04,01,15.30
2015,08,24,04,02,15.30
2015,08,24,04,03,15.30
2015,08,24,04,04,15.40
2015,08,24,04,05,15.40
2015,08,24,04,06,15.40
2015,08,24,04,07,15.40
2015,08,24,04,08,15.40
2015,08,24,04,09,15.40
2015,08,24,04,10,15.40
2015,08,24,04,11,15.30
2015,08,24,04,12,15.30
2015,08,24,04,13,15.30
2015,08,24,04,14,15.30
2015,08,24,04,15,15.30
2015,08,24,04,16,15.30
2015,08,24,04,17,15.30
2015,08,24,04,18,15.30
2015,08,24,04,19,15.30
2015,08,24,04,20,15.30
2015,08,24,04,21,15.30
2015,08,24,04,22,15.30
2015,08,24,04,23,15.30
2015,08,24,04,24,15.30
2015,08,24,04,25,15.30
2015,08,24,04,26,15.30
2015,08,24,04,27,15.30
2015,08,24,04,28,15.40
2015,08,24,04,29,15.40
2015,08,24,04,30,15.30
2015,08,24,04,31,15.40
2015,08,24,04,32,15.30
2015,08,24,04,33,15.30
2015,08,24,04,34,15.30
2015,08,24,04,35,15.30
2015,08,24,04,36,15.30
2015,08,24,04,37,15.30
2015,08,24,04,38,15.30
2015,08,24,04,39,15.40
2015,08,24,04,40,15.40
2015,08,24,04,41,15.40
2015,08,24,04,42,15.40
2015,08,24,04,43,15.40
2015,08,24,04,44,15.40
2015,08,24,04,45,15.30
2015,08,24,04,46,15.30
2015,08,24,04,47,15.30
2015,08,24,04,48,15.30
2015,08,24,04,49,15.30
2015,08,24,04,50,15.30
2015,08,24,04,51,15.30
2015,08,24,04,52,15.30
2015,08,24,04,53,15.30
2015,08,24,04,54,15.30
2015,08,24,04,55,15.40
2015,08,24,04,56,15.40
2015,08,24,04,57,15.40
2015,08,24,04,58,15.50
2015,08,24,04,59,15.50
2015,08,24,05,00,15.60
2015,08,24,05,01,15.60
2015,08,24,05,02,15.60
2015,08,24,05,03,15.60
2015,08,24,05,04,15.50
2015,08,24,05,05,15.50
2015,08,24,05,06,15.50
2015,08,24,05,07,15.50
2015,08,24,05,08,15.50
2015,08,24,05,09,15.40
2015,08,24,05,10,15.30
2015,08,24,05,11,15.30
2015,08,24,05,12,15.30
2015,08,24,05,13,15.20
2015,08,24,05,14,15.20
2015,08,24,05,15,15.10
2015,08,24,05,16,15.10
2015,08,24,05,17,15.00
2015,08,24,05,18,14.90
2015,08,24,05,19,14.90
2015,08,24,05,20,14.80
2015,08,24,05,21,14.80
2015,08,24,05,22,14.70
2015,08,24,05,23,14.70
2015,08,24,05,24,14.70
2015,08,24,05,25,14.60
2015,08,24,05,26,14.60
2015,08,24,05,27,14.60
2015,08,24,05,28,14.50
2015,08,24,05,29,14.50
2015,08,24,05,30,14.40
2015,08,24,05,31,14.40
2015,08,24,05,32,14.30
2015,08,24,05,33,14.30
2015,08,24,05,34,14.30
2015,08,24,05,35,14.20
2015,08,24,05,36,14.20
2015,08,24,05,37,14.20
2015,08,24,05,38,14.20
2015,08,24,05,39,14.10
2015,08,24,05,40,14.10
2015,08,24,05,41,14.10
2015,08,24,05,42,14.00
2015,08,24,05,43,14.00
2015,08,24,05,44,13.90
2015,08,24,05,45,13.90
2015,08,24,05,46,13.90
2015,08,24,05,47,13.90
2015,08,24,05,48,13.90
2015,08,24,05,49,14.00
2015,08,24,05,50,13.90
2015,08,24,05,51,13.90
2015,08,24,05,52,13.90
2015,08,24,05,53,13.80
2015,08,24,05,54,13.80
2015,08,24,05,55,13.70
2015,08,24,05,56,13.70
2015,08,24,05,57,13.60
2015,08,24,05,58,13.50
2015,08,24,05,59,13.40
2015,08,24,06,00,13.30
2015,08,24,06,01,13.30
2015,08,24,06,02,13.20
2015,08,24,06,03,13.20
2015,08,24,06,04,13.10
2015,08,24,06,05,13.10
2015,08,24,06,06,13.00
2015,08,24,06,07,12.90
2015,08,24,06,08,12.90
2015,08,24,06,09,12.90
2015,08,24,06,10,12.80
2015,08,24,06,11,12.80
2015,08,24,06,12,12.70
2015,08,24,06,13,12.70
2015,08,24,06,14,12.70
2015,08,24,06,15,12.70
2015,08,24,06,16,12.70
2015,08,24,06,17,12.60
2015,08,24,06,18,12.60
2015,08,24,06,19,12.60
2015,08,24,06,20,12.60
2015,08,24,06,21,12.60
2015,08,24,06,22,12.50
2015,08,24,06,23,12.50
2015,08,24,06,24,12.40
2015,08,24,06,25,12.40
2015,08,24,06,26,12.30
2015,08,24,06,27,12.30
2015,08,24,06,28,12.30
2015,08,24,06,29,12.20
2015,08,24,06,30,12.20
2015,08,24,06,31,12.20
2015,08,24,06,32,12.10
2015,08,24,06,33,12.10
2015,08,24,06,34,12.10
2015,08,24,06,35,12.10
2015,08,24,06,36,12.10
2015,08,24,06,37,12.10
2015,08,24,06,38,12.10
2015,08,24,06,39,12.10
2015,08,24,06,40,12.10
2015,08,24,06,41,12.00
2015,08,24,06,42,12.00
2015,08,24,06,43,11.90
2015,08,24,06,44,11.90
2015,08,24,06,45,11.90
2015,08,24,06,46,11.80
2015,08,24,06,47,11.80
2015,08,24,06,48,11.80
2015,08,24,06,49,11.80
2015,08,24,06,50,11.80
2015,08,24,06,51,11.70
2015,08,24,06,52,11.70
2015,08,24,06,53,11.70
2015,08,24,06,54,11.70
2015,08,24,06,55,11.70
2015,08,24,06,56,11.70
2015,08,24,06,57,11.70
2015,08,24,06,58,11.70
2015,08,24,06,59,11.70
2015,08,24,07,00,11.70
2015,08,24,07,01,11.70
2015,08,24,07,02,11.70
2015,08,24,07,03,11.80
2015,08,24,07,04,11.80
2015,08,24,07,05,11.80
2015,08,24,07,06,11.80
2015,08,24,07,07,11.80
2015,08,24,07,08,11.90
2015,08,24,07,09,11.90
2015,08,24,07,10,11.90
2015,08,24,07,11,11.90
2015,08,24,07,12,11.90
2015,08,24,07,13,12.00
2015,08,24,07,14,12.00
2015,08,24,07,15,12.10
2015,08,24,07,16,12.10
2015,08,24,07,17,12.10
2015,08,24,07,18,12.20
2015,08,24,07,19,12.20
2015,08,24,07,20,12.20
2015,08,24,07,21,12.30
2015,08,24,07,22,12.30
2015,08,24,07,23,12.40
2015,08,24,07,24,12.40
2015,08,24,07,25,12.50
2015,08,24,07,26,12.60
2015,08,24,07,27,12.60
2015,08,24,07,28,12.70
2015,08,24,07,29,12.70
2015,08,24,07,30,12.80
2015,08,24,07,31,12.80
2015,08,24,07,32,12.80
2015,08,24,07,33,12.90
2015,08,24,07,34,12.90
2015,08,24,07,35,13.00
2015,08,24,07,36,13.10
2015,08,24,07,37,13.10
2015,08,24,07,38,13.20
2015,08,24,07,39,13.20
2015,08,24,07,40,13.30
2015,08,24,07,41,13.40
2015,08,24,07,42,13.50
2015,08,24,07,43,13.50
2015,08,24,07,44,13.60
2015,08,24,07,45,13.70
2015,08,24,07,46,13.80
2015,08,24,07,47,13.90
2015,08,24,07,48,14.00
2015,08,24,07,49,14.10
2015,08,24,07,50,14.20
2015,08,24,07,51,14.30
2015,08,24,07,52,14.40
2015,08,24,07,53,14.50
2015,08,24,07,54,14.60
2015,08,24,07,55,14.70
2015,08,24,07,56,14.80
2015,08,24,07,57,14.90
2015,08,24,07,58,15.00
2015,08,24,07,59,15.10
2015,08,24,08,00,15.20
2015,08,24,08,01,15.20
2015,08,24,08,02,15.30
2015,08,24,08,03,15.40
2015,08,24,08,04,15.50
2015,08,24,08,05,15.60
2015,08,24,08,06,15.60
2015,08,24,08,07,15.70
2015,08,24,08,08,15.80
2015,08,24,08,09,15.90
2015,08,24,08,10,15.90
2015,08,24,08,11,16.00
2015,08,24,08,12,16.10
2015,08,24,08,13,16.20
2015,08,24,08,14,16.30
2015,08,24,08,15,16.40
2015,08,24,08,16,16.50
2015,08,24,08,17,16.50
2015,08,24,08,18,16.60
2015,08,24,08,19,16.70
2015,08,24,08,20,16.70
2015,08,24,08,21,16.80
2015,08,24,08,22,16.80
2015,08,24,08,23,16.90
2015,08,24,08,24,16.90
2015,08,24,08,25,17.00
2015,08,24,08,26,17.00
2015,08,24,08,27,17.10
2015,08,24,08,28,17.10
2015,08,24,08,29,17.20
2015,08,24,08,30,17.20
2015,08,24,08,31,17.30
2015,08,24,08,32,17.30
2015,08,24,08,33,17.30
2015,08,24,08,34,17.30
2015,08,24,08,35,17.30
2015,08,24,08,36,17.40
2015,08,24,08,37,17.40
2015,08,24,08,38,17.50
2015,08,24,08,39,17.50
2015,08,24,08,40,17.50
2015,08,24,08,41,17.50
2015,08,24,08,42,17.50
2015,08,24,08,43,17.50
2015,08,24,08,44,17.50
2015,08,24,08,45,17.50
2015,08,24,08,46,17.60
2015,08,24,08,47,17.60
2015,08,24,08,48,17.60
2015,08,24,08,49,17.70
2015,08,24,08,50,17.70
2015,08,24,08,51,17.70
2015,08,24,08,52,17.80
2015,08,24,08,53,17.80
2015,08,24,08,54,17.80
2015,08,24,08,55,17.80
2015,08,24,08,56,17.80
2015,08,24,08,57,17.80
2015,08,24,08,58,17.90
2015,08,24,08,59,17.90
2015,08,24,09,00,17.80
2015,08,24,09,01,17.80
2015,08,24,09,02,17.90
2015,08,24,09,03,17.90
2015,08,24,09,04,17.90
2015,08,24,09,05,18.00
2015,08,24,09,06,18.10
2015,08,24,09,07,18.10
2015,08,24,09,08,18.10
2015,08,24,09,09,18.10
2015,08,24,09,10,18.10
2015,08,24,09,11,18.10
2015,08,24,09,12,18.10
2015,08,24,09,13,18.20
2015,08,24,09,14,18.20
2015,08,24,09,15,18.30
2015,08,24,09,16,18.30
2015,08,24,09,17,18.40
2015,08,24,09,18,18.40
2015,08,24,09,19,18.40
2015,08,24,09,20,18.40
2015,08,24,09,21,18.40
2015,08,24,09,22,18.40
2015,08,24,09,23,18.40
2015,08,24,09,24,18.40
2015,08,24,09,25,18.40
2015,08,24,09,26,18.40
2015,08,24,09,27,18.40
2015,08,24,09,28,18.40
2015,08,24,09,29,18.40
2015,08,24,09,30,18.40
2015,08,24,09,31,18.30
2015,08,24,09,32,18.40
2015,08,24,09,33,18.40
2015,08,24,09,34,18.30
2015,08,24,09,35,18.40
2015,08,24,09,36,18.30
2015,08,24,09,37,18.30
2015,08,24,09,38,18.20
2015,08,24,09,39,18.20
2015,08,24,09,40,18.10
2015,08,24,09,41,18.10
2015,08,24,09,42,18.10
2015,08,24,09,43,18.10
2015,08,24,09,44,18.10
2015,08,24,09,45,18.20
2015,08,24,09,46,18.20
2015,08,24,09,47,18.20
2015,08,24,09,48,18.20
2015,08,24,09,49,18.30
2015,08,24,09,50,18.30
2015,08,24,09,51,18.30
2015,08,24,09,52,18.40
2015,08,24,09,53,18.40
2015,08,24,09,54,18.50
2015,08,24,09,55,18.60
2015,08,24,09,56,18.70
2015,08,24,09,57,18.70
2015,08,24,09,58,18.80
2015,08,24,09,59,18.80
2015,08,24,10,00,18.70
2015,08,24,10,01,18.70
2015,08,24,10,02,18.60
2015,08,24,10,03,18.60
2015,08,24,10,04,18.60
2015,08,24,10,05,18.60
2015,08,24,10,06,18.60
2015,08,24,10,07,18.60
2015,08,24,10,08,18.60
2015,08,24,10,09,18.60
2015,08,24,10,10,18.60
2015,08,24,10,11,18.60
2015,08,24,10,12,18.60
2015,08,24,10,13,18.70
2015,08,24,10,14,18.70
2015,08,24,10,15,18.90
2015,08,24,10,16,19.00
2015,08,24,10,17,19.00
2015,08,24,10,18,19.10
2015,08,24,10,19,19.10
2015,08,24,10,20,19.10
2015,08,24,10,21,19.20
2015,08,24,10,22,19.30
2015,08,24,10,23,19.30
2015,08,24,10,24,19.30
2015,08,24,10,25,19.30
2015,08,24,10,26,19.40
2015,08,24,10,27,19.40
2015,08,24,10,28,19.40
2015,08,24,10,29,19.40
2015,08,24,10,30,19.30
2015,08,24,10,31,19.30
2015,08,24,10,32,19.20
2015,08,24,10,33,19.20
2015,08,24,10,34,19.20
2015,08,24,10,35,19.20
2015,08,24,10,36,19.30
2015,08,24,10,37,19.30
2015,08,24,10,38,19.30
2015,08,24,10,39,19.30
2015,08,24,10,40,19.30
2015,08,24,10,41,19.30
2015,08,24,10,42,19.30
2015,08,24,10,43,19.20
2015,08,24,10,44,19.20
2015,08,24,10,45,19.20
2015,08,24,10,46,19.20
2015,08,24,10,47,19.20
2015,08,24,10,48,19.20
2015,08,24,10,49,19.20
2015,08,24,10,50,19.30
2015,08,24,10,51,19.30
2015,08,24,10,52,19.30
2015,08,24,10,53,19.30
2015,08,24,10,54,19.30
2015,08,24,10,55,19.40
2015,08,24,10,56,19.40
2015,08,24,10,57,19.50
2015,08,24,10,58,19.50
2015,08,24,10,59,19.50
2015,08,24,11,00,19.50
2015,08,24,11,01,19.50
2015,08,24,11,02,19.50
2015,08,24,11,03,19.60
2015,08,24,11,04,19.60
2015,08,24,11,05,19.60
2015,08,24,11,06,19.60
2015,08,24,11,07,19.70
2015,08,24,11,08,19.80
2015,08,24,11,09,19.80
2015,08,24,11,10,19.80
2015,08,24,11,11,19.80
2015,08,24,11,12,19.70
2015,08,24,11,13,19.70
2015,08,24,11,14,19.60
2015,08,24,11,15,19.60
2015,08,24,11,16,19.50
2015,08,24,11,17,19.50
2015,08,24,11,18,19.40
2015,08,24,11,19,19.40
2015,08,24,11,20,19.40
2015,08,24,11,21,19.40
2015,08,24,11,22,19.40
2015,08,24,11,23,19.40
2015,08,24,11,24,19.30
2015,08,24,11,25,19.30
2015,08,24,11,26,19.20
2015,08,24,11,27,19.20
2015,08,24,11,28,19.20
2015,08,24,11,29,19.20
2015,08,24,11,30,19.30
2015,08,24,11,31,19.30
2015,08,24,11,32,19.30
2015,08,24,11,33,19.30
2015,08,24,11,34,19.30
2015,08,24,11,35,19.30
2015,08,24,11,36,19.30
2015,08,24,11,37,19.30
2015,08,24,11,38,19.30
2015,08,24,11,39,19.30
2015,08,24,11,40,19.20
2015,08,24,11,41,19.20
2015,08,24,11,42,19.10
2015,08,24,11,43,19.10
2015,08,24,11,44,19.20
2015,08,24,11,45,19.20
2015,08,24,11,46,19.20
2015,08,24,11,47,19.10
2015,08,24,11,48,19.10
2015,08,24,11,49,19.10
2015,08,24,11,50,19.20
2015,08,24,11,51,19.20
2015,08,24,11,52,19.20
2015,08,24,11,53,19.20
2015,08,24,11,54,19.20
2015,08,24,11,55,19.10
2015,08,24,11,56,19.10
2015,08,24,11,57,19.10
2015,08,24,11,58,19.10
2015,08,24,11,59,19.10
2015,08,24,12,00,19.10
2015,08,24,12,01,19.10
2015,08,24,12,02,19.00
2015,08,24,12,03,19.00
2015,08,24,12,04,19.00
2015,08,24,12,05,19.00
2015,08,24,12,06,19.00
2015,08,24,12,07,19.00
2015,08,24,12,08,19.00
2015,08,24,12,09,19.00
2015,08,24,12,10,19.00
2015,08,24,12,11,19.10
2015,08,24,12,12,19.20
2015,08,24,12,13,19.20
2015,08,24,12,14,19.20
2015,08,24,12,15,19.30
2015,08,24,12,16,19.30
2015,08,24,12,17,19.20
2015,08,24,12,18,19.20
2015,08,24,12,19,19.30
2015,08,24,12,20,19.30
2015,08,24,12,21,19.30
2015,08,24,12,22,19.30
2015,08,24,12,23,19.30
2015,08,24,12,24,19.30
2015,08,24,12,25,19.20
2015,08,24,12,26,19.20
2015,08,24,12,27,19.20
2015,08,24,12,28,19.20
2015,08,24,12,29,19.10
2015,08,24,12,30,19.10
2015,08,24,12,31,19.10
2015,08,24,12,32,19.10
2015,08,24,12,33,19.10
2015,08,24,12,34,19.00
2015,08,24,12,35,19.00
2015,08,24,12,36,18.90
2015,08,24,12,37,18.80
2015,08,24,12,38,18.80
2015,08,24,12,39,18.80
2015,08,24,12,40,18.80
2015,08,24,12,41,18.80
2015,08,24,12,42,18.80
2015,08,24,12,43,18.80
2015,08,24,12,44,18.80
2015,08,24,12,45,18.80
2015,08,24,12,46,18.80
2015,08,24,12,47,18.80
2015,08,24,12,48,18.80
2015,08,24,12,49,18.80
2015,08,24,12,50,18.90
2015,08,24,12,51,18.90
2015,08,24,12,52,18.90
2015,08,24,12,53,18.90
2015,08,24,12,54,18.90
2015,08,24,12,55,18.90
2015,08,24,12,56,19.00
2015,08,24,12,57,19.10
2015,08,24,12,58,19.10
2015,08,24,12,59,19.10
2015,08,24,13,00,19.10
2015,08,24,13,01,19.00
2015,08,24,13,02,19.00
2015,08,24,13,03,19.00
2015,08,24,13,04,19.00
2015,08,24,13,05,19.00
2015,08,24,13,06,19.00
2015,08,24,13,07,18.90
2015,08,24,13,08,18.90
2015,08,24,13,09,18.80
2015,08,24,13,10,18.80
2015,08,24,13,11,18.80
2015,08,24,13,12,18.80
2015,08,24,13,13,18.80
2015,08,24,13,14,18.80
2015,08,24,13,15,18.80
2015,08,24,13,16,18.90
2015,08,24,13,17,18.90
2015,08,24,13,18,18.90
2015,08,24,13,19,19.00
2015,08,24,13,20,19.00
2015,08,24,13,21,18.90
2015,08,24,13,22,18.90
2015,08,24,13,23,18.80
2015,08,24,13,24,18.80
2015,08,24,13,25,18.80
2015,08,24,13,26,18.80
2015,08,24,13,27,18.90
2015,08,24,13,28,18.90
2015,08,24,13,29,18.90
2015,08,24,13,30,19.00
2015,08,24,13,31,19.10
2015,08,24,13,32,19.10
2015,08,24,13,33,19.10
2015,08,24,13,34,19.20
2015,08,24,13,35,19.20
2015,08,24,13,36,19.20
2015,08,24,13,37,19.20
2015,08,24,13,38,19.20
2015,08,24,13,39,19.20
2015,08,24,13,40,19.20
2015,08,24,13,41,19.30
2015,08,24,13,42,19.30
2015,08,24,13,43,19.30
2015,08,24,13,44,19.30
2015,08,24,13,45,19.30
2015,08,24,13,46,19.30
2015,08,24,13,47,19.40
2015,08,24,13,48,19.40
2015,08,24,13,49,19.40
2015,08,24,13,50,19.40
2015,08,24,13,51,19.50
2015,08,24,13,52,19.50
2015,08,24,13,53,19.60
2015,08,24,13,54,19.60
2015,08,24,13,55,19.60
2015,08,24,13,56,19.70
2015,08,24,13,57,19.70
2015,08,24,13,58,19.70
2015,08,24,13,59,19.80
2015,08,24,14,00,19.80
2015,08,24,14,01,19.80
2015,08,24,14,02,19.90
2015,08,24,14,03,19.90
2015,08,24,14,04,20.00
2015,08,24,14,05,19.90
2015,08,24,14,06,19.90
2015,08,24,14,07,20.00
2015,08,24,14,08,20.10
2015,08,24,14,09,20.10
2015,08,24,14,10,20.10
2015,08,24,14,11,20.10
2015,08,24,14,12,20.10
2015,08,24,14,13,20.10
2015,08,24,14,14,20.10
2015,08,24,14,15,20.10
2015,08,24,14,16,20.10
2015,08,24,14,17,20.00
2015,08,24,14,18,20.00
2015,08,24,14,19,19.90
2015,08,24,14,20,19.90
2015,08,24,14,21,19.90
2015,08,24,14,22,19.90
2015,08,24,14,23,19.80
2015,08,24,14,24,19.80
2015,08,24,14,25,19.80
2015,08,24,14,26,19.80
2015,08,24,14,27,19.80
2015,08,24,14,28,19.80
2015,08,24,14,29,19.80
2015,08,24,14,30,19.80
2015,08,24,14,31,19.80
2015,08,24,14,32,19.90
2015,08,24,14,33,19.90
2015,08,24,14,34,20.00
2015,08,24,14,35,20.00
2015,08,24,14,36,20.10
2015,08,24,14,37,20.10
2015,08,24,14,38,20.20
2015,08,24,14,39,20.20
2015,08,24,14,40,20.30
2015,08,24,14,41,20.20
2015,08,24,14,42,20.20
2015,08,24,14,43,20.20
2015,08,24,14,44,20.20
2015,08,24,14,45,20.30
2015,08,24,14,46,20.30
2015,08,24,14,47,20.20
2015,08,24,14,48,20.20
2015,08,24,14,49,20.20
2015,08,24,14,50,20.20
2015,08,24,14,51,20.20
2015,08,24,14,52,20.20
2015,08,24,14,53,20.20
2015,08,24,14,54,20.20
2015,08,24,14,55,20.20
2015,08,24,14,56,20.20
2015,08,24,14,57,20.30
2015,08,24,14,58,20.40
2015,08,24,14,59,20.50
2015,08,24,15,00,20.60
2015,08,24,15,01,20.70
2015,08,24,15,02,20.80
2015,08,24,15,03,20.80
2015,08,24,15,04,20.90
2015,08,24,15,05,20.90
2015,08,24,15,06,21.00
2015,08,24,15,07,21.10
2015,08,24,15,08,21.20
2015,08,24,15,09,21.20
2015,08,24,15,10,21.30
2015,08,24,15,11,21.30
2015,08,24,15,12,21.30
2015,08,24,15,13,21.30
2015,08,24,15,14,21.20
2015,08,24,15,15,21.20
2015,08,24,15,16,21.20
2015,08,24,15,17,21.20
2015,08,24,15,18,21.20
2015,08,24,15,19,21.20
2015,08,24,15,20,21.20
2015,08,24,15,21,21.20
2015,08,24,15,22,21.30
2015,08,24,15,23,21.30
2015,08,24,15,24,21.30
2015,08,24,15,25,21.20
2015,08,24,15,26,21.20
2015,08,24,15,27,21.20
2015,08,24,15,28,21.20
2015,08,24,15,29,21.20
2015,08,24,15,30,21.20
2015,08,24,15,31,21.10
2015,08,24,15,32,21.10
2015,08,24,15,33,21.00
2015,08,24,15,34,21.00
2015,08,24,15,35,21.00
2015,08,24,15,36,20.90
2015,08,24,15,37,20.90
2015,08,24,15,38,20.90
2015,08,24,15,39,20.90
2015,08,24,15,40,20.90
2015,08,24,15,41,20.90
2015,08,24,15,42,21.00
2015,08,24,15,43,21.10
2015,08,24,15,44,21.10
2015,08,24,15,45,21.10
2015,08,24,15,46,21.20
2015,08,24,15,47,21.20
2015,08,24,15,48,21.20
2015,08,24,15,49,21.20
2015,08,24,15,50,21.20
2015,08,24,15,51,21.30
2015,08,24,15,52,21.30
2015,08,24,15,53,21.40
2015,08,24,15,54,21.40
2015,08,24,15,55,21.50
2015,08,24,15,56,21.50
2015,08,24,15,57,21.50
2015,08,24,15,58,21.40
2015,08,24,15,59,21.40
2015,08,24,16,00,21.40
2015,08,24,16,01,21.50
2015,08,24,16,02,21.50
2015,08,24,16,03,21.50
2015,08,24,16,04,21.60
2015,08,24,16,05,21.60
2015,08,24,16,06,21.60
2015,08,24,16,07,21.60
2015,08,24,16,08,21.60
2015,08,24,16,09,21.60
2015,08,24,16,10,21.50
2015,08,24,16,11,21.40
2015,08,24,16,12,21.40
2015,08,24,16,13,21.40
2015,08,24,16,14,21.30
2015,08,24,16,15,21.30
2015,08,24,16,16,21.30
2015,08,24,16,17,21.30
2015,08,24,16,18,21.30
2015,08,24,16,19,21.30
2015,08,24,16,20,21.30
2015,08,24,16,21,21.30
2015,08,24,16,22,21.20
2015,08,24,16,23,21.30
2015,08,24,16,24,21.20
2015,08,24,16,25,21.20
2015,08,24,16,26,21.20
2015,08,24,16,27,21.20
2015,08,24,16,28,21.20
2015,08,24,16,29,21.10
2015,08,24,16,30,21.10
2015,08,24,16,31,21.10
2015,08,24,16,32,21.20
2015,08,24,16,33,21.20
2015,08,24,16,34,21.30
2015,08,24,16,35,21.30
2015,08,24,16,36,21.40
2015,08,24,16,37,21.50
2015,08,24,16,38,21.50
2015,08,24,16,39,21.60
2015,08,24,16,40,21.60
2015,08,24,16,41,21.70
2015,08,24,16,42,21.70
2015,08,24,16,43,21.70
2015,08,24,16,44,21.70
2015,08,24,16,45,21.70
2015,08,24,16,46,21.70
2015,08,24,16,47,21.60
2015,08,24,16,48,21.60
2015,08,24,16,49,21.70
2015,08,24,16,50,21.70
2015,08,24,16,51,21.80
2015,08,24,16,52,21.80
2015,08,24,16,53,21.80
2015,08,24,16,54,21.80
2015,08,24,16,55,21.80
2015,08,24,16,56,21.80
2015,08,24,16,57,21.80
2015,08,24,16,58,21.80
2015,08,24,16,59,21.80
2015,08,24,17,00,21.80
2015,08,24,17,01,21.80
2015,08,24,17,02,21.80
2015,08,24,17,03,21.80
2015,08,24,17,04,21.80
2015,08,24,17,05,21.80
2015,08,24,17,06,21.80
2015,08,24,17,07,21.70
2015,08,24,17,08,21.70
2015,08,24,17,09,21.70
2015,08,24,17,10,21.70
2015,08,24,17,11,21.70
2015,08,24,17,12,21.70
2015,08,24,17,13,21.70
2015,08,24,17,14,21.70
2015,08,24,17,15,21.70
2015,08,24,17,16,21.70
2015,08,24,17,17,21.70
2015,08,24,17,18,21.70
2015,08,24,17,19,21.70